McCook, NE

11:53 PM CST on February 24, 2017 (GMT -0600)
McCook Municipal

Weather History for KMCK - September, 2013

Change the Weather History Date:

Sunday, September 1, 2013

  Actual Average Record
Temperature  
Mean Temperature 76 °F 70 °F  
Max Temperature 88 °F 85 °F 107 °F (1929)
Min Temperature 64 °F 56 °F 39 °F (1956)
Cooling Degree Days 12    
Growing Degree Days 26 (Base 50)    
Moisture  
Dew Point 54 °F    
Average Humidity 50    
Maximum Humidity 84    
Minimum Humidity 23    
Precipitation  
Precipitation 0.00 in 0.06 in 2.10 in (1973)
Month to date precipitation 0.00 0.06  
Year to date precipitation 9.17 17.77  
Sea Level Pressure  
Sea Level Pressure 29.98 in    
Wind  
Wind Speed 13 mph (NNE)    
Max Wind Speed 25 mph    
Max Gust Speed 34 mph    
Visibility 10 miles    
Events Thunderstorm    
T = Trace of Precipitation, MM = Missing Value Source: NWS Daily Summary

Daily Weather History Graph

Daily Weather History Graph

Search for Another Location

Airport or City:

Trip Planner

Search our weather history database for the weather conditions in past years. The results will help you decide how hot, cold, wet, or windy it might be!

Date:

Astronomy

Sep. 01, 2013 Rise Set
Actual Time 7:10 AM CDT 8:13 PM CDT
Civil Twilight 6:42 AM CDT 8:41 PM CDT
Nautical Twilight 6:09 AM CDT 9:14 PM CDT
Astronomical Twilight 5:34 AM CDT 9:48 PM CDT
Moon 3:33 AM CDT (9/1) 5:52 PM CDT (9/1)
Length of Visible Light 13h 59m
Length of Day
13h 03m
Waning Crescent, 13% of the Moon is Illuminated
Sep 1
Waning Crescent
Sep 5
New
Sep 12
First Quarter
Sep 19
Full
Sep 26
Last Quarter

Hourly Weather History & Observations

Time (CDT) Temp. Heat Index Dew Point Humidity Pressure Visibility Wind Dir Wind Speed Gust Speed Precip Events Conditions
12:08 AM 75.2 °F - 57.2 °F 53% 29.95 in 10.0 mi NNE 25.3 mph 29.9 mph N/A   Partly Cloudy
12:27 AM 78.8 °F - 55.4 °F 44% 29.94 in 10.0 mi NE 21.9 mph 31.1 mph N/A Thunderstorm Scattered Clouds
12:42 AM 80.6 °F 80.5 °F 55.4 °F 42% 29.94 in 10.0 mi NNE 18.4 mph 34.5 mph N/A   Scattered Clouds
12:53 AM 81.0 °F 80.8 °F 55.9 °F 42% 29.84 in 10.0 mi NE 15.0 mph 23.0 mph N/A   Scattered Clouds
1:53 AM 73.9 °F - 60.1 °F 62% 29.89 in 10.0 mi NNW 11.5 mph - N/A   Clear
2:53 AM 71.1 °F - 63.0 °F 75% 29.89 in 10.0 mi NNW 15.0 mph - N/A   Clear
3:53 AM 70.0 °F - 63.0 °F 78% 29.92 in 10.0 mi NW 4.6 mph - N/A   Clear
4:53 AM 69.1 °F - 63.0 °F 81% 29.93 in 10.0 mi NNW 5.8 mph - N/A   Clear
5:53 AM 66.9 °F - 61.0 °F 81% 29.95 in 10.0 mi NNE 5.8 mph - N/A   Clear
6:53 AM 66.9 °F - 62.1 °F 84% 29.98 in 10.0 mi NE 4.6 mph - N/A   Overcast
7:53 AM 66.9 °F - 59.0 °F 76% 30.01 in 10.0 mi NNE 8.1 mph - N/A   Mostly Cloudy
8:53 AM 70.0 °F - 57.0 °F 63% 30.04 in 10.0 mi NE 12.7 mph - N/A   Clear
9:53 AM 73.9 °F - 55.0 °F 52% 30.05 in 10.0 mi ENE 12.7 mph - N/A   Clear
10:53 AM 77.0 °F - 52.0 °F 42% 30.05 in 10.0 mi NE 15.0 mph 19.6 mph N/A   Clear
11:53 AM 80.1 °F - 50.0 °F 35% 30.05 in 10.0 mi ENE 12.7 mph - N/A   Clear
12:53 PM 81.0 °F - 48.9 °F 33% 30.04 in 10.0 mi North 10.4 mph 16.1 mph N/A   Clear
1:53 PM 82.9 °F - 48.0 °F 29% 30.03 in 10.0 mi NW 6.9 mph - N/A   Clear
2:53 PM 86.0 °F - 48.0 °F 27% 30.02 in 10.0 mi North 5.8 mph - N/A   Clear
3:53 PM 86.0 °F - 46.0 °F 25% 30.00 in 10.0 mi NNE 9.2 mph - N/A   Clear
4:53 PM 87.1 °F - 45.0 °F 23% 29.98 in 10.0 mi NNE 5.8 mph - N/A   Clear
5:53 PM 87.1 °F - 45.0 °F 23% 29.98 in 10.0 mi NNE 9.2 mph - N/A   Clear
6:53 PM 84.9 °F - 45.0 °F 25% 29.98 in 10.0 mi NNE 4.6 mph - N/A   Clear
7:53 PM 80.1 °F 79.9 °F 53.1 °F 39% 29.99 in 10.0 mi Calm Calm - N/A   Clear
8:53 PM 73.0 °F - 52.0 °F 48% 30.01 in 10.0 mi ENE 5.8 mph - N/A   Clear
9:53 PM 70.0 °F - 52.0 °F 53% 30.04 in 10.0 mi ENE 4.6 mph - N/A   Scattered Clouds
10:53 PM 66.9 °F - 52.0 °F 59% 30.04 in 10.0 mi Calm Calm - N/A   Clear
11:53 PM 66.0 °F - 52.0 °F 60% 30.05 in 10.0 mi Calm Calm - N/A   Clear